Weather History for Martinsville, VA

Change the Weather History Date:

Sunday, October 7, 2012

  Actual Average (KGSO) Record (KGSO)
Temperature  
Mean Temperature 50 °F 62 °F  
Max Temperature 55 °F 73 °F 92 °F (1951)
Min Temperature 42 °F 52 °F 33 °F (1935)
Degree Days  
Heating Degree Days 16 4  
Month to date heating degree days 25  
Since 1 July heating degree days 56  
Cooling Degree Days 0 2  
Month to date cooling degree days 15  
Year to date cooling degree days 1462  
Moisture  
Dew Point 48 °F    
Average Humidity 89    
Maximum Humidity 100    
Minimum Humidity 77    
Precipitation  
Precipitation 0.41 in 0.10 in 1.84 in (1965)
Month to date precipitation 0.71  
Year to date precipitation 33.69  
Sea Level Pressure  
Sea Level Pressure 30.10 in    
Wind  
Wind Speed 2 mph (NE)    
Max Wind Speed 9 mph    
Max Gust Speed -    
Visibility 8 miles    
Events Fog , Rain    
T = Trace of Precipitation, MM = Missing Value Source: NWS Daily Summary

Daily Weather History Graph

Daily Weather History Graph

Search for Another Location

Airport:

Trip Planner

Search our weather history database for the weather conditions in past years. The results will help you decide how hot, cold, wet, or windy it might be!

Date:

Astronomy

Oct. 07, 2012 Rise Set
Actual Time 7:20 AM EDT 6:54 PM EDT
Civil Twilight 6:54 AM EDT 7:19 PM EDT
Nautical Twilight 6:24 AM EDT 7:49 PM EDT
Astronomical Twilight 5:54 AM EDT 8:19 PM EDT
Moon No Moon Rise 1:50 PM EDT (10/7)
Length of Visible Light 12h 25m
Length of Day
11h 33m
Waning Gibbous, 56% of the Moon is Illuminated
Oct 7
Waning Gibbous
Oct 8
Last Quarter
Oct 15
New
Oct 21
First Quarter
Oct 29
Full

Hourly Weather History & Observations

Time (EDT) Temp. Dew Point Humidity Pressure Visibility Wind Dir Wind Speed Gust Speed Precip Events Conditions
12:15 AM 55.4 °F 51.8 °F 88% 30.05 in 10.0 mi NE 4.6 mph - 0.02 in   Overcast
12:35 AM 55.4 °F 50.0 °F 82% 30.05 in 10.0 mi Calm Calm - 0.02 in   Overcast
12:55 AM 55.4 °F 51.8 °F 88% 30.04 in 10.0 mi Calm Calm - N/A   Overcast
1:15 AM 55.4 °F 51.8 °F 88% 30.04 in 10.0 mi Calm Calm - 0.01 in   Overcast
1:35 AM 55.4 °F 51.8 °F 88% 30.05 in 10.0 mi Calm Calm - 0.01 in   Overcast
1:55 AM 55.4 °F 51.8 °F 88% 30.05 in 10.0 mi North 3.5 mph - N/A   Overcast
2:15 AM 55.4 °F 51.8 °F 88% 30.05 in 10.0 mi Calm Calm - N/A   Overcast
2:35 AM 55.4 °F 51.8 °F 88% 30.04 in 10.0 mi NE 3.5 mph - N/A   Overcast
2:55 AM 55.4 °F 50.0 °F 82% 30.05 in 10.0 mi Calm Calm - N/A   Overcast
3:15 AM 55.4 °F 51.8 °F 88% 30.04 in 10.0 mi Calm Calm - N/A   Overcast
3:35 AM 55.4 °F 51.8 °F 88% 30.05 in 7.0 mi Calm Calm - 0.02 in Rain Light Rain
3:55 AM 55.4 °F 51.8 °F 88% 30.05 in 10.0 mi Calm Calm - N/A   Overcast
4:15 AM 55.4 °F 51.8 °F 88% 30.06 in 10.0 mi Calm Calm - N/A   Overcast
4:35 AM 55.4 °F 51.8 °F 88% 30.06 in 10.0 mi Calm Calm - 0.05 in Rain Light Rain
4:55 AM 55.4 °F 50.0 °F 82% 30.06 in 10.0 mi NNE 3.5 mph - N/A   Light Drizzle
5:15 AM 53.6 °F 48.2 °F 82% 30.06 in 10.0 mi Calm Calm - N/A   Overcast
5:35 AM 53.6 °F 50.0 °F 88% 30.05 in 10.0 mi NE 4.6 mph - N/A   Overcast
5:55 AM 53.6 °F 50.0 °F 88% 30.06 in 10.0 mi NE 5.8 mph - N/A Rain Rain
6:15 AM 53.6 °F 50.0 °F 88% 30.07 in 10.0 mi NE 5.8 mph - 0.01 in Rain Light Rain
6:35 AM 51.8 °F 48.2 °F 88% 30.08 in 10.0 mi NNE 6.9 mph - 0.01 in Rain Light Rain
6:55 AM 51.8 °F 48.2 °F 88% 30.09 in 10.0 mi North 5.8 mph - N/A   Light Drizzle
7:15 AM 51.8 °F 46.4 °F 82% 30.11 in - Calm Calm - 0.06 in   Unknown
7:35 AM 50.0 °F 46.4 °F 87% 30.10 in 5.0 mi ENE 6.9 mph - 0.20 in Rain Heavy Rain
7:55 AM 48.2 °F 46.4 °F 93% 30.10 in 10.0 mi NE 3.5 mph - 0.05 in Rain Rain
8:15 AM 48.2 °F 48.2 °F 100% 30.10 in 10.0 mi NE 3.5 mph - 0.11 in Rain Rain
8:35 AM 48.2 °F 48.2 °F 100% 30.10 in 10.0 mi NE 3.5 mph - 0.12 in Rain Light Rain
8:55 AM 50.0 °F 46.4 °F 87% 30.12 in 10.0 mi NE 4.6 mph - N/A   Overcast
9:15 AM 50.0 °F 46.4 °F 87% 30.13 in 10.0 mi Calm Calm - N/A   Overcast
9:35 AM 50.0 °F 46.4 °F 87% 30.13 in 10.0 mi NE 3.5 mph - N/A   Overcast
9:55 AM 50.0 °F 46.4 °F 87% 30.13 in 10.0 mi NNE 3.5 mph - N/A   Overcast
10:15 AM 51.8 °F 48.2 °F 88% 30.13 in 10.0 mi Calm Calm - N/A   Overcast
10:55 AM 51.8 °F 46.4 °F 82% 30.12 in 10.0 mi ENE 5.8 mph - N/A   Overcast
11:15 AM 51.8 °F 46.4 °F 82% 30.12 in 10.0 mi East 3.5 mph - N/A   Overcast
11:35 AM 53.6 °F 46.4 °F 77% 30.12 in 10.0 mi NE 4.6 mph - N/A   Overcast
11:55 AM 53.6 °F 46.4 °F 77% 30.12 in 10.0 mi ENE 5.8 mph - N/A   Overcast
12:15 PM 53.6 °F 46.4 °F 77% 30.11 in 10.0 mi ENE 9.2 mph - N/A   Overcast
12:35 PM 53.6 °F 48.2 °F 82% 30.11 in 10.0 mi ENE 3.5 mph - N/A   Overcast
12:55 PM 53.6 °F 46.4 °F 77% 30.11 in 10.0 mi ENE 4.6 mph - N/A   Overcast
1:15 PM 53.6 °F 46.4 °F 77% 30.09 in 10.0 mi East 5.8 mph - N/A   Overcast
1:35 PM 53.6 °F 46.4 °F 77% 30.08 in 10.0 mi ENE 3.5 mph - N/A   Overcast
1:55 PM 53.6 °F 46.4 °F 77% 30.07 in 10.0 mi NNE 4.6 mph - N/A   Overcast
2:15 PM 53.6 °F 48.2 °F 82% 30.06 in 10.0 mi NE 6.9 mph - N/A   Overcast
2:35 PM 53.6 °F 48.2 °F 82% 30.06 in 10.0 mi ENE 4.6 mph - N/A   Overcast
2:55 PM 53.6 °F 48.2 °F 82% 30.06 in 10.0 mi North 3.5 mph - N/A   Overcast
3:15 PM 53.6 °F 48.2 °F 82% 30.08 in 10.0 mi North 4.6 mph - N/A   Overcast
3:35 PM 53.6 °F 48.2 °F 82% 30.09 in 10.0 mi NNW 9.2 mph - N/A   Overcast
3:55 PM 53.6 °F 48.2 °F 82% 30.10 in 7.0 mi North 5.8 mph - N/A   Overcast
4:15 PM 51.8 °F 48.2 °F 88% 30.10 in 2.5 mi NNW 4.6 mph - N/A Rain Rain
4:35 PM 51.8 °F 51.8 °F 100% 30.11 in 4.0 mi Calm Calm - N/A   Light Drizzle
4:55 PM 51.8 °F 50.0 °F 94% 30.11 in 10.0 mi Calm Calm - N/A   Overcast
5:15 PM 51.8 °F 48.2 °F 88% 30.11 in 10.0 mi Calm Calm - N/A   Overcast
5:35 PM 53.6 °F 50.0 °F 88% 30.12 in 10.0 mi NE 3.5 mph - N/A   Overcast
5:55 PM 51.8 °F 48.2 °F 88% 30.12 in 10.0 mi Calm Calm - N/A   Overcast
6:15 PM 51.8 °F 48.2 °F 88% 30.12 in 10.0 mi Calm Calm - N/A   Overcast
6:35 PM 51.8 °F 48.2 °F 88% 30.12 in 10.0 mi Calm Calm - N/A   Overcast
6:55 PM 51.8 °F 48.2 °F 88% 30.13 in 10.0 mi Calm Calm - N/A   Overcast
7:15 PM 51.8 °F 48.2 °F 88% 30.13 in 10.0 mi Calm Calm - N/A   Scattered Clouds
7:35 PM 51.8 °F 51.8 °F 100% 30.13 in 10.0 mi Calm Calm - N/A   Mostly Cloudy
7:55 PM 50.0 °F 50.0 °F 100% 30.14 in 7.0 mi Calm Calm - N/A   Mostly Cloudy
8:15 PM 48.2 °F 48.2 °F 100% 30.15 in 5.0 mi Calm Calm - N/A   Clear
8:55 PM 48.2 °F 48.2 °F 100% 30.16 in 2.0 mi Calm Calm - N/A   Clear
9:15 PM 46.4 °F 46.4 °F 100% 30.17 in 1.0 mi Calm Calm - N/A   Mist
9:35 PM 46.4 °F 46.4 °F 100% 30.18 in 0.5 mi Calm Calm - N/A Fog Fog
9:55 PM 46.4 °F 46.4 °F 100% 30.18 in 1.0 mi Calm Calm - N/A   Overcast
10:15 PM 46.4 °F 46.4 °F 100% 30.19 in 0.2 mi Calm Calm - N/A Fog Fog
10:35 PM 46.4 °F 46.4 °F 100% 30.19 in 0.5 mi Calm Calm - N/A Fog Fog
10:55 PM 44.6 °F 44.6 °F 100% 30.19 in 0.5 mi Calm Calm - N/A Fog Fog
11:15 PM 44.6 °F 44.6 °F 100% 30.19 in 0.2 mi Calm Calm - N/A Fog Fog
11:35 PM 44.6 °F 44.6 °F 100% 30.20 in 0.2 mi Calm Calm - N/A Fog Fog
11:55 PM 42.8 °F 42.8 °F 100% 30.19 in 0.8 mi Calm Calm - N/A   Mostly Cloudy